Location: Azul
(36.7830°S, 59.8500°W)
Time: 03:08:14
(UTC-03:00)

ISS - Pass Details

Date: 22 October 2020
Orbit: 417 x 420 km, 51.6° (Epoch: 28 October)

Event Time Altitude Azimuth Distance (km) Brightness Sun altitude
Rises 20:28:48 0° 252° (WSW) 2,391 2.0 -13.2°
Reaches altitude 10° 20:32:39 10° 208° (SSW) 1,530 -0.1 -13.9°
Maximum altitude 20:33:17 10° 197° (SSW) 1,508 -0.3 -14.0°
Drops below altitude 10° 20:33:55 10° 187° (S) 1,532 -0.5 -14.1°
Sets 20:37:47 0° 143° (SE) 2,402 0.0 -14.8°
